Simultaneous Nadir Overpasses (SNOs) Predictions

Prediction of SNOs over PacNW region [( 10.00, 139.50) to ( 22.70, 165.60)] between AQUA and NPP Satellites:

Table of predicted SNOs over PacNW region for the next 30.0 days since TLE Epoch: 4/3/2020
Index Date (AQUA) Time (AQUA) AQUA Lat,Lon Date (NPP) Time (NPP) NPP Lat,Lon Distance(km) Time Diff (sec)
1 04/06/2020 15:59:38 22.64, 147.47 04/06/2020 16:01:28 23.27, 144.57 305.24 110
2 04/14/2020 15:10:12 22.59, 159.81 04/14/2020 15:10:46 23.17, 157.23 272.62 34
3 04/22/2020 15:59:36 22.60, 147.46 04/22/2020 16:01:30 23.22, 144.55 305.31 114
4 04/30/2020 15:10:06 22.59, 159.82 04/30/2020 15:10:46 23.14, 157.22 273.37 40




NCC Satellite Simultaneous Nadir Overpasses (SNOs) Prediction Service
